Flag for Germany Weather past 2 weeks in Lehrte, Lower Saxony, Germany

Now
40 °F

Partly sunny.


Feels Like: 37 °F
Forecast: 46 / 52 °F
Wind: 5 mph from West

Location: Hannover

Current Time: Dec 21, 2014 at 11:10:26 AM

Latest Report: Dec 21, 2014 at 9:00 AM


Visibility: 19 mi

Pressure: 30.29 "Hg

Humidity: 86%

Dew point: 36 °F

Location of LehrteLocation

Historic Weather in Lehrte — Graph

°F

Lehrte temperature yesterday

Maximum temperature yesterday: 44 °F (at 2:00 PM)
Minimum temperature yesterday: 39 °F (at 3:00 PM)
Average temperature yesterday: 42 °F

Past Weeks' High & Low Weather Summary

 TemperatureHumidityPressure
High54 °F (Dec 18, 8:00 PM)100% (Dec 7, 6:00 AM)30.37 "Hg (Dec 7, 6:00 AM)
Low32 °F (Dec 7, 6:00 AM)62% (Dec 7, 5:00 PM)29.32 "Hg (Dec 12, 2:00 PM)
Average41 °F84%29.90 "Hg
* Reported Dec 6 9:00 AM — Dec 21 9:00 AM, Lehrte, Weather by CustomWeather, © 2014

Note: Actual official high and low records may vary slightly from our data, if they occured in-between our weather recording intervals... More about our weather records

Advertising

Lehrte weather history for previous 24 hours

 ConditionsComfort  
Time TempWeatherWind HumidityBarometerVisibility
9:00 AM
Dec 21
40 °FPartly sunny.5 mph86%30.29 "Hg19 mi
8:00 AM40 °FPassing clouds.5 mph87%30.29 "Hg19 mi
7:00 AM41 °FPassing clouds.6 mph85%30.28 "Hg19 mi
6:00 AM41 °FLow clouds.5 mph86%30.27 "Hg12 mi
5:00 AM41 °FOvercast.7 mph85%30.26 "Hg16 mi
3:00 AM41 °FPassing clouds.9 mph82%30.22 "Hg16 mi
2:00 AM41 °FOvercast.9 mph82%30.19 "Hg16 mi
1:00 AM40 °FPassing clouds.8 mph82%30.16 "Hg16 mi
12:00 AM40 °FOvercast.8 mph85%30.14 "Hg17 mi
11:00 PM
Dec 20
40 °FPassing clouds.8 mph83%30.12 "Hg22 mi
9:00 PM39 °FPassing clouds.8 mph85%30.06 "Hg22 mi
8:00 PM40 °FPassing clouds.10 mph83%30.02 "Hg16 mi
7:00 PM41 °FSprinkles. Passing clouds.13 mph85%29.96 "Hg7 mi
6:00 PM40 °FPassing clouds.9 mph88%29.93 "Hg16 mi
5:00 PM40 °FSprinkles. Overcast.9 mph83%29.90 "Hg12 mi
4:00 PM40 °FThunderstorms. Partly sunny.9 mph87%29.88 "Hg12 mi
3:00 PM39 °FLight rain. Overcast.13 mph85%29.86 "Hg5 mi
2:00 PM44 °FOvercast.10 mph79%29.85 "Hg9 mi
1:00 PM43 °FOvercast.10 mph84%29.87 "Hg19 mi
12:00 PM44 °FOvercast.10 mph79%29.89 "Hg19 mi
11:00 AM44 °FLow clouds.12 mph77%29.91 "Hg19 mi
Weather by CustomWeather, © 2014

See weather overviewHow to use our weather pages